[[{"header":{"parameterUnit":"m.s-1","parameterCategory":1,"la1":30.2991,"la2":30.254,"lo1":-89.0895,"lo2":-89.0444,"dy":0.0017,"dx":0.0017,"nx":28,"ny":28,"refTime":"2025-08-26T03:00:00:Z","depth":0,"parameterNumber":2,"parameterNumberName":"U-component_of_WINDS"},"data":[0,0,0,0,0,0,0,0,0,0,0,0,0,0,0,0,0,0,0,0,0,0,0,0,0,0,0,0,0,0,0,0,0,0,0,0,0,0,0,0,0,0,0,0,0,0,0,0,0,0,0,0,0,0,0,0,0,0,-4.1217,-4.1217,0,-4.1221,-4.1221,-4.1221,-4.111,-4.1107,-4.1104,-4.1101,-4.1106,-4.1109,-4.1112,0,0,0,0,0,0,0,0,0,0,0,0,0,-4.1114,-4.1117,-4.1217,-4.1217,-4.1217,-4.1221,-4.1221,-4.1221,-4.1111,-4.1107,-4.1103,-4.11,-4.1105,-4.1108,-4.1112,0,0,0,0,0,0,0,0,0,0,0,0,0,-4.1143,-4.1118,-4.1217,-4.1162,-4.1158,-4.1221,-4.1221,-4.1221,-4.1111,-4.1107,-4.1102,-4.1098,-4.1104,-4.1108,-4.1112,-4.1228,0,0,-4.1126,-4.1127,0,0,0,0,0,0,0,0,-4.1141,-4.1147,-4.117,-4.1166,-4.1161,-4.116,-4.1186,-4.1224,-4.1112,-4.1129,-4.1101,-4.1096,-4.1128,-4.113,-4.114,-4.1228,-4.1229,-4.1126,-4.1129,-4.113,-4.1132,0,0,0,0,0,0,0,-4.114,-4.1146,-4.1219,-4.1171,-4.1165,-4.1138,-4.1137,-4.1193,-4.1153,-4.1127,-4.1119,-4.1121,-4.1124,-4.1136,-4.114,-4.1229,-4.1126,-4.113,-4.1132,-4.1134,-4.1413,-4.1418,0,0,0,0,0,0,-4.1145,-4.1145,-4.1218,-4.1219,-4.114,-4.1143,-4.1142,-4.1165,-4.1152,-4.1146,-4.1125,-4.1116,-4.1131,-4.1135,-4.1139,-4.1275,-4.113,-4.1135,-4.1137,-4.1408,-4.1414,-4.1419,0,0,0,0,0,0,-4.1143,-4.1153,-4.1218,-4.118,-4.1186,-4.115,-4.1176,-4.1168,-4.118,-4.1151,-4.1143,-4.1145,-4.1128,-4.1133,-4.1207,-4.1274,-4.1136,-4.114,-4.1403,-4.141,-4.1417,-4.1547,0,0,0,0,0,0,-4.1141,-4.1153,-4.1196,-4.1182,-4.1188,-4.1286,-4.118,-4.1171,-4.1187,-4.1176,-4.1167,-4.1161,-4.1125,-4.1201,-4.1212,-4.1277,-4.1144,-4.1396,-4.1406,-4.1414,-4.1537,-4.1558,-4.1576,0,0,0,0,0,-4.1137,-4.1233,-4.1199,-4.1208,-4.1242,-4.129,-4.1294,-4.125,-4.1193,-4.1237,-4.1218,-4.1162,-4.1265,-4.121,-4.122,-4.1288,-4.1392,-4.1403,-4.1414,-4.1528,-4.1554,-4.1576,0,0,0,0,0,0,-4.1256,-4.123,-4.1192,-4.1285,-4.1291,-4.1271,-4.1325,-4.1279,-4.1301,-4.1289,-4.1233,-4.1232,-4.1315,-4.1309,-4.1248,-4.14,-4.1318,-4.1332,-4.1402,-4.1426,-4.1445,-4.1446,-4.1147,0,0,0,0,0,-4.1293,-4.1334,-4.1309,-4.1394,-4.1398,-4.1362,-4.1381,-4.1346,-4.135,-4.1352,-4.1338,-4.1344,-4.1378,-4.1401,-4.143,-4.1535,-4.1532,-4.1587,-4.1607,-4.1623,-4.1636,-4.1692,-4.1716,-4.1455,-4.1455,-4.1455,0,0,-4.137,-4.1361,-4.139,-4.1417,-4.1418,-4.1462,-4.1364,-4.1415,-4.1448,-4.1359,-4.1429,-4.1419,-4.1422,-4.1512,-4.1551,-4.151,-4.1707,-4.1637,-4.165,-4.1654,-4.1705,-4.173,-4.1752,-4.1462,-4.1461,-4.146,0,0,-4.1533,-4.153,-4.1601,-4.1603,-4.1605,-4.158,-4.1597,-4.1585,-4.1575,-4.1644,-4.1579,-4.1616,-4.1675,-4.168,-4.169,-4.1856,-4.1805,-4.1867,-4.197,-4.2025,-4.2046,-4.2064,-4.2124,-4.2147,-4.188,-4.188,-4.188,0,-4.1629,-4.1693,-4.1643,-4.1699,-4.1713,-4.1635,-4.1707,-4.1711,-4.1723,-4.1734,-4.1687,-4.176,-4.1756,-4.1847,-4.1888,-4.1898,-4.1916,-4.1868,-4.2047,-4.2065,-4.2081,-4.2138,-4.216,-4.1887,-4.1887,-4.1886,-4.1885,0,-4.1811,-4.1856,-4.1913,-4.1927,-4.1947,-4.201,-4.1971,-4.1997,-4.1961,-4.1941,-4.2012,-4.2005,-4.2032,-4.2051,-4.2016,-4.2137,-4.2111,-4.2057,-4.1973,-4.2114,-4.2167,-4.2188,-4.1898,-4.1896,-4.1893,-4.1891,0,0,-4.205,-4.2035,-4.2057,-4.2062,-4.2058,-4.2092,-4.2152,-4.2179,-4.2203,-4.2214,-4.2263,-4.2315,-4.2264,-4.2276,-4.2241,-4.2289,-4.2423,-4.2228,-4.2228,-4.2266,-4.2557,-4.26,-4.2626,-4.2388,-4.2392,-4.2395,-4.2558,0,-4.2209,-4.2311,-4.2268,-4.2374,-4.2416,-4.2342,-4.2395,-4.2398,-4.2382,-4.2415,-4.2395,-4.2434,-4.2364,-4.237,-4.2415,-4.2397,-4.2481,-4.2384,-4.2435,-4.2437,-4.2438,-4.2653,-4.2697,-4.2851,-4.2578,-4.2581,-4.2584,0,-4.2409,-4.2428,-4.2539,-4.2528,-4.2544,-4.2592,-4.2613,-4.2645,-4.2648,-4.2632,-4.2646,-4.26,-4.2658,-4.2575,-4.2655,-4.2591,-4.2609,-4.2603,-4.2608,-4.2612,-4.252,-4.2664,-4.2899,-4.2922,-4.2615,-4.2613,-4.261,0,-4.2574,-4.2627,-4.27,-4.2707,-4.2696,-4.2731,-4.2729,-4.2727,-4.2746,-4.2764,-4.2776,-4.2801,-4.2815,-4.2836,-4.2798,-4.274,-4.2884,-4.2797,-4.2874,-4.2875,-4.2908,-4.2907,-4.3151,-4.2918,-4.2918,-4.2917,-4.2917,0,-4.2757,-4.2828,-4.2774,-4.2819,-4.2897,-4.2846,-4.2924,-4.2913,-4.2913,-4.2955,-4.2892,-4.2933,-4.288,-4.2916,-4.2887,-4.2959,-4.2965,-4.2955,-4.2946,-4.2961,-4.2963,-4.2973,-4.2962,-4.2923,-4.2922,-4.2921,-4.292,0,-4.2955,-4.2921,-4.2996,-4.298,-4.2978,-4.3036,-4.3022,-4.3063,-4.3042,-4.3096,-4.3106,-4.3072,-4.3112,-4.3076,-4.3113,-4.3093,-4.3189,-4.3165,-4.3189,-4.3183,-4.3262,-4.3255,-4.3521,-4.3554,-4.33,-4.3302,-4.3304,0,-4.3074,-4.3127,-4.3117,-4.3141,-4.3142,-4.3181,-4.32,-4.3152,-4.3175,-4.3182,-4.3223,-4.3257,-4.3282,-4.3348,-4.3327,-4.3356,-4.3332,-4.3423,-4.3336,-4.335,-4.3335,-4.3333,-4.3339,-4.3442,-4.3445,-4.3447,-4.3449,0,-4.3291,-4.3272,-4.3302,-4.3327,-4.3351,-4.3368,-4.338,-4.3403,-4.3354,-4.3383,-4.3422,-4.3442,-4.348,-4.3515,-4.3537,-4.3533,-4.3485,-4.3477,-4.3496,-4.3513,-4.3525,-4.3521,-4.3239,-4.3471,-4.3469,-4.3467,-4.3466,-4.3465,-4.3454,-4.3498,-4.3498,-4.3534,-4.3538,-4.3551,-4.3589,-4.3573,-4.3605,-4.3632,-4.3602,-4.3651,-4.3652,-4.3677,-4.368,-4.3717,-4.3679,-4.3707,-4.3714,-4.3722,-4.3735,-4.3518,-4.3721,-4.372,-4.372,-4.3719,-4.3719,0,-4.3669,-4.3665,-4.3699,-4.3718,-4.3746,-4.3696,-4.3707,-4.3734,-4.3778,-4.3783,-4.3809,-4.3855,-4.3888,-4.387,-4.39,-4.3933,-4.3911,-4.3942,-4.394,-4.3941,-4.3766,-4.3747,-4.396,-4.396,-4.396,-4.396,-4.396,-4.396,-4.3784,-4.3856,-4.3838,-4.3911,-4.3907,-4.3954,-4.3965,-4.3977,-4.3981,-4.4035,-4.4063,-4.405,-4.4047,-4.4075,-4.4104,-4.4098,-4.4112,-4.4152,-4.4139,-4.3976,-4.3953,-4.393,-4.3912,-4.4156,-4.4156,-4.4309,-4.4311,-4.4312]},{"header":{"parameterUnit":"m.s-1","parameterCategory":1,"la1":30.2991,"la2":30.254,"lo1":-89.0895,"lo2":-89.0444,"dy":0.0017,"dx":0.0017,"nx":28,"ny":28,"refTime":"2025-08-26T03:00:00:Z","depth":0,"parameterNumber":3,"parameterNumberName":"V-component_of_WINDS"},"data":[0,0,0,0,0,0,0,0,0,0,0,0,0,0,0,0,0,0,0,0,0,0,0,0,0,0,0,0,0,0,0,0,0,0,0,0,0,0,0,0,0,0,0,0,0,0,0,0,0,0,0,0,0,0,0,0,0,0,-2.6572,-2.6572,0,-2.6594,-2.6595,-2.6595,-2.6563,-2.6562,-2.6561,-2.656,-2.6582,-2.6584,-2.6585,0,0,0,0,0,0,0,0,0,0,0,0,0,-2.6499,-2.65,-2.6572,-2.6572,-2.6572,-2.6594,-2.6595,-2.6595,-2.6563,-2.6562,-2.656,-2.6559,-2.6581,-2.6583,-2.6585,0,0,0,0,0,0,0,0,0,0,0,0,0,-2.6527,-2.6501,-2.6572,-2.6559,-2.6558,-2.6594,-2.6595,-2.6595,-2.6564,-2.6562,-2.656,-2.6559,-2.6581,-2.6583,-2.6586,-2.6635,0,0,-2.6593,-2.6594,0,0,0,0,0,0,0,0,-2.6525,-2.6529,-2.6561,-2.656,-2.6559,-2.6574,-2.6577,-2.6608,-2.6564,-2.6561,-2.656,-2.6558,-2.6581,-2.6583,-2.6591,-2.6636,-2.6637,-2.6593,-2.6595,-2.6596,-2.6597,0,0,0,0,0,0,0,-2.6523,-2.6528,-2.6581,-2.6561,-2.656,-2.6552,-2.6554,-2.6583,-2.658,-2.6562,-2.6559,-2.6562,-2.658,-2.6589,-2.6591,-2.6637,-2.6593,-2.6596,-2.6597,-2.6598,-2.6723,-2.6724,0,0,0,0,0,0,-2.6523,-2.6527,-2.658,-2.6581,-2.6538,-2.6554,-2.6557,-2.6571,-2.658,-2.658,-2.6564,-2.6561,-2.6585,-2.6588,-2.6592,-2.665,-2.6596,-2.6598,-2.66,-2.6721,-2.6723,-2.6725,0,0,0,0,0,0,-2.6522,-2.6528,-2.6579,-2.6553,-2.6559,-2.6557,-2.6574,-2.6572,-2.6581,-2.6582,-2.6581,-2.6574,-2.6584,-2.6589,-2.6624,-2.665,-2.6599,-2.6602,-2.6719,-2.6721,-2.6724,-2.6766,0,0,0,0,0,0,-2.652,-2.6528,-2.6547,-2.6554,-2.6561,-2.6612,-2.6575,-2.6574,-2.6586,-2.6582,-2.6591,-2.659,-2.6583,-2.6621,-2.6627,-2.6653,-2.6604,-2.6716,-2.672,-2.6723,-2.6763,-2.677,-2.6777,0,0,0,0,0,-2.6517,-2.6558,-2.6548,-2.6555,-2.6585,-2.6613,-2.6617,-2.6608,-2.6588,-2.6607,-2.6607,-2.659,-2.6646,-2.6625,-2.6631,-2.6658,-2.6715,-2.6719,-2.6723,-2.676,-2.6769,-2.6777,0,0,0,0,0,0,-2.6554,-2.6559,-2.6548,-2.6592,-2.6603,-2.6608,-2.6632,-2.6618,-2.6634,-2.663,-2.6618,-2.662,-2.6659,-2.6662,-2.6638,-2.6706,-2.6677,-2.6683,-2.6703,-2.6711,-2.6718,-2.6717,-2.6606,0,0,0,0,0,-2.6567,-2.659,-2.6593,-2.6632,-2.6637,-2.6634,-2.6646,-2.6638,-2.6648,-2.6652,-2.6655,-2.6665,-2.6685,-2.6698,-2.6716,-2.6763,-2.6764,-2.6784,-2.6791,-2.6797,-2.6802,-2.6826,-2.6835,-2.6738,-2.6738,-2.6738,0,0,-2.6595,-2.66,-2.6615,-2.6639,-2.6646,-2.667,-2.6638,-2.6664,-2.6681,-2.6656,-2.669,-2.6692,-2.6703,-2.6744,-2.6762,-2.6748,-2.6829,-2.6802,-2.6807,-2.6809,-2.6831,-2.6841,-2.6849,-2.6741,-2.6741,-2.674,0,0,-2.6657,-2.6664,-2.6697,-2.6704,-2.6715,-2.6712,-2.672,-2.6727,-2.6728,-2.6762,-2.6743,-2.6763,-2.6798,-2.6806,-2.6814,-2.6879,-2.6863,-2.6885,-2.6922,-2.6945,-2.6953,-2.696,-2.6982,-2.6991,-2.689,-2.689,-2.689,0,-2.669,-2.6726,-2.6715,-2.6743,-2.6754,-2.6732,-2.6765,-2.6772,-2.6789,-2.6796,-2.678,-2.6822,-2.6828,-2.687,-2.6886,-2.6894,-2.6902,-2.6884,-2.6953,-2.6959,-2.6965,-2.6987,-2.6996,-2.6892,-2.6892,-2.6892,-2.6892,0,-2.6765,-2.679,-2.6815,-2.6832,-2.6845,-2.6875,-2.6869,-2.6884,-2.6874,-2.6873,-2.6907,-2.6913,-2.6932,-2.6941,-2.6932,-2.6982,-2.6973,-2.6955,-2.6926,-2.6977,-2.6998,-2.7006,-2.6896,-2.6895,-2.6894,-2.6894,0,0,-2.6853,-2.6862,-2.6872,-2.6879,-2.6889,-2.6908,-2.6936,-2.6955,-2.6967,-2.6979,-2.7002,-2.7032,-2.7015,-2.7025,-2.7016,-2.7037,-2.7087,-2.7016,-2.7016,-2.703,-2.7142,-2.7156,-2.7166,-2.7077,-2.7079,-2.708,-2.7141,0,-2.6915,-2.6965,-2.6956,-2.7005,-2.7027,-2.7006,-2.7031,-2.7039,-2.7038,-2.7057,-2.7055,-2.7076,-2.7053,-2.7058,-2.7078,-2.7077,-2.711,-2.7073,-2.7099,-2.71,-2.7097,-2.7176,-2.7191,-2.7249,-2.7149,-2.715,-2.7151,0,-2.6995,-2.701,-2.7061,-2.7067,-2.7076,-2.7098,-2.7114,-2.7132,-2.7141,-2.7138,-2.7149,-2.7136,-2.7164,-2.7134,-2.7172,-2.7147,-2.7157,-2.7158,-2.716,-2.7162,-2.7129,-2.7181,-2.7267,-2.7276,-2.7164,-2.7163,-2.7162,0,-2.7054,-2.7086,-2.7121,-2.7127,-2.7135,-2.7151,-2.7155,-2.7162,-2.7174,-2.7187,-2.7194,-2.7211,-2.722,-2.7233,-2.7225,-2.7204,-2.7264,-2.7233,-2.7263,-2.7263,-2.7277,-2.7276,-2.7366,-2.7283,-2.7282,-2.7282,-2.7282,0,-2.7125,-2.7157,-2.7147,-2.7168,-2.7203,-2.7192,-2.7226,-2.7228,-2.7234,-2.7255,-2.7237,-2.7257,-2.7245,-2.7263,-2.7257,-2.7289,-2.7293,-2.7292,-2.729,-2.7294,-2.7294,-2.7301,-2.7296,-2.7285,-2.7284,-2.7284,-2.7283,0,-2.7196,-2.7191,-2.7227,-2.7232,-2.7233,-2.7259,-2.7262,-2.7281,-2.7279,-2.7305,-2.731,-2.7306,-2.7327,-2.732,-2.7342,-2.7338,-2.7379,-2.7372,-2.7376,-2.7374,-2.7404,-2.7402,-2.7502,-2.7514,-2.7423,-2.7423,-2.7424,0,-2.7242,-2.7266,-2.7273,-2.7286,-2.7291,-2.7311,-2.7323,-2.7312,-2.7325,-2.7336,-2.7354,-2.7373,-2.7388,-2.7422,-2.7421,-2.7438,-2.7431,-2.7465,-2.7433,-2.7436,-2.7431,-2.743,-2.7432,-2.7471,-2.7472,-2.7473,-2.7474,0,-2.7324,-2.732,-2.7338,-2.7354,-2.7369,-2.7381,-2.7392,-2.7403,-2.7393,-2.7408,-2.7429,-2.744,-2.7463,-2.7482,-2.7497,-2.75,-2.7485,-2.7483,-2.7491,-2.7496,-2.7497,-2.7497,-2.7394,-2.7481,-2.7481,-2.748,-2.748,-2.7479,-2.7385,-2.7405,-2.7412,-2.7432,-2.7439,-2.7449,-2.7468,-2.7467,-2.7485,-2.7502,-2.7495,-2.7519,-2.7526,-2.7545,-2.755,-2.7568,-2.7555,-2.7566,-2.7569,-2.7572,-2.7576,-2.7494,-2.7571,-2.757,-2.757,-2.757,-2.757,0,-2.7466,-2.7469,-2.7488,-2.7503,-2.7519,-2.7503,-2.7514,-2.7528,-2.7549,-2.7557,-2.7572,-2.7596,-2.7614,-2.7614,-2.7631,-2.7645,-2.7639,-2.765,-2.7649,-2.765,-2.7587,-2.7578,-2.7655,-2.7655,-2.7655,-2.7655,-2.7655,-2.7655,-2.751,-2.7543,-2.754,-2.7576,-2.7579,-2.7603,-2.761,-2.7619,-2.7626,-2.7653,-2.7668,-2.7668,-2.7672,-2.7689,-2.7705,-2.7704,-2.7711,-2.7725,-2.7722,-2.7663,-2.7655,-2.7647,-2.7639,-2.7727,-2.7727,-2.7784,-2.7784,-2.7785]}]]